User: anonymous   Login
Location: Unspecified
(0.0000°N, 0.0000°E)
Time: 10:50:28
(UTC+00:00)
Language:

NOAA 17 - Orbit

View from above orbital plane
View from above orbital plane
View from above satellite
View from above satellite

Ground track
Ground track

The orbit data is extracted from the following two-line orbital elements,

1 27453U 02032A   17016.52517854 -.00000015  00000-0  11279-4 0  9991
2 27453  98.4136 347.0756 0010648 286.1892  73.8117 14.24974443757166
Epoch (UTC): 16 January 2017 12:36:15
Eccentricity: 0.0010648
inclination: 98.4136°
perigee height: 801 km
apogee height: 816 km
right ascension of ascending node: 347.0756°
argument of perigee: 286.1892°
revolutions per day: 14.24974443
mean anomaly at epoch: 73.8117°
orbit number at epoch: 75716

The dashed part of the orbit path shows where the satellite is in the earth's shadow,  

DLR